Погода в Чичестере

Великобритания     50°50′12″N   0°45′51″E
темп.,
°C
ветер,
м/с
пор.,
м/с
влажн.,
%
обл.,
%
осадки,
мм/ч
давл.,
гПа
погр.,
м
18 января, пн
пн1800:00+6зсз578384 0.0 1027333
03:00+6з588356 0.0 1026469
06:00+6з588146 0.0 1025567
09:00+7з6981100 0.1 1024695
12:00+8з7975100 0.1 10231097
15:00+8юз81179100 0.0 1020894
18:00+8ююз111489100 0.3 1018727
21:00+9ююз142092100 4.1 1014857
19 января, вт
вт1900:00+10юз132094100 7.1 1011718
03:00+11зюз132094100 2.1 1008650
06:00+10зюз121994100 2.5 1007643
09:00+10зюз121890100 0.1 1007816
12:00+10юз131989100 0.3 1007983
15:00+10юз142188100 0.7 10041023
18:00+10юз152285100 1.3 1002929
21:00+10юз152289100 0.8 999881
20 января, ср
ср2000:00+10юз162391100 1.7 998849
03:00+10юз162291100 1.8 996842
06:00+10юз152191100 3.0 994822
09:00+9ююз142188100 1.5 993855
12:00+10ююз131982100 1.9 991917
15:00+10ююз132087100 0.4 987845
18:00+10ю152186100 0.7 984979
21:00+10ю182489100 0.8 9791057
21 января, чт
чт2100:00+9юз162088100 2.6 9771027
03:00+6з16236867 1.0 9821652
06:00+8зюз13196838 1.0 9851606
09:00+8зюз14196919 0.1 9861571
12:00+9зюз14186815 0.1 9871668
15:00+9зюз121769100 0.1 9861573
18:00+8зюз111571100 0.3 9861261
21:00+7зюз10147029 0.1 9851195
22 января, пт
пт2200:00+7зюз11157022 0.1 9861267
03:00+7з1115706 0.1 9871261
06:00+6з1013723 0.1 9881013
09:00+6з912710 0.0 9901010
12:00+7з911680 0.0 9911239
15:00+7зюз7106967 0.0 9921077
18:00+6з687383 0.0 992777
21:00+5зсз6976100 0.0 994631